Anaktuvuk Pass, AK

10:47 AM AKDT on March 27, 2017 (GMT -0800)
Anaktuvuk Pass

Weather History for PAKP - March, 2013

Change the Weather History Date:

Friday, March 1, 2013

  Actual Average Record
Temperature  
Mean Temperature -6 °F -  
Max Temperature 1 °F 0 °F 24 °F (2016)
Min Temperature -14 °F -12 °F -41 °F (1997)
Degree Days  
Heating Degree Days 72    
Moisture  
Dew Point -17 °F    
Average Humidity 60    
Maximum Humidity 92    
Minimum Humidity 25    
Precipitation  
Precipitation 0.00 in - - ()
Sea Level Pressure  
Sea Level Pressure 29.66 in    
Wind  
Wind Speed 8 mph (NNE)    
Max Wind Speed 18 mph    
Max Gust Speed 24 mph    
Visibility 9 miles    
Events      
Averages and records for this station are not official NWS values.
T = Trace of Precipitation, MM = Missing Value Source: NWS Daily Summary

Daily Weather History Graph

Daily Weather History Graph

Search for Another Location

Airport or City:

Trip Planner

Search our weather history database for the weather conditions in past years. The results will help you decide how hot, cold, wet, or windy it might be!

Date:

Astronomy

Mar. 01, 2013 Rise Set
Actual Time 8:24 AM AKST 6:15 PM AKST
Civil Twilight 7:27 AM AKST 7:12 PM AKST
Nautical Twilight 6:23 AM AKST 8:17 PM AKST
Astronomical Twilight 5:15 AM AKST 9:25 PM AKST
Moon 12:06 AM AKST (3/1) 7:53 AM AKST (3/1)
Length of Visible Light 11h 44m
Length of Day
9h 50m
Waning Gibbous, 82% of the Moon is Illuminated
Mar 1
Waning Gibbous
Mar 4
Last Quarter
Mar 11
New
Mar 19
First Quarter
Mar 27
Full

Hourly Weather History & Observations

Time (AKST) Temp. Windchill Dew Point Humidity Pressure Visibility Wind Dir Wind Speed Gust Speed Precip Events Conditions
12:16 AM -13.0 °F -25.1 °F -22.0 °F 64% 29.47 in 10.0 mi NNW 4.6 mph - N/A   Clear
12:56 AM -11.2 °F -20.6 °F -20.2 °F 64% 29.48 in 10.0 mi North 3.5 mph - N/A   Clear
1:16 AM -14.8 °F -29.1 °F -27.4 °F 53% 29.48 in 10.0 mi NNE 5.8 mph - N/A   Clear
1:36 AM -13.0 °F -25.1 °F -20.2 °F 70% 29.48 in 10.0 mi North 4.6 mph - N/A   Clear
1:56 AM -11.2 °F -24.8 °F -20.2 °F 64% 29.48 in 10.0 mi NNE 5.8 mph - N/A   Clear
2:16 AM -11.2 °F -26.4 °F -23.8 °F 54% 29.49 in 10.0 mi North 6.9 mph - N/A   Clear
2:36 AM -9.4 °F -18.6 °F -16.6 °F 71% 29.49 in 10.0 mi North 3.5 mph - N/A   Clear
3:16 AM -11.2 °F - -20.2 °F 64% 29.50 in 10.0 mi Calm Calm - N/A   Clear
3:36 AM -11.2 °F - -20.2 °F 64% 29.51 in 10.0 mi Calm Calm - N/A   Clear
3:56 AM -11.2 °F -24.8 °F -22.0 °F 59% 29.51 in 10.0 mi NNE 5.8 mph - N/A   Clear
4:16 AM -14.8 °F -32.2 °F -25.6 °F 58% 29.51 in 10.0 mi NNE 8.1 mph - N/A   Clear
4:36 AM -14.8 °F -30.8 °F -23.8 °F 64% 29.51 in 10.0 mi NNE 6.9 mph - N/A   Clear
4:56 AM -14.8 °F -34.6 °F -22.0 °F 70% 29.52 in 10.0 mi NNE 10.4 mph - N/A   Clear
5:16 AM -11.2 °F -27.8 °F -18.4 °F 70% 29.53 in 10.0 mi NNE 8.1 mph - N/A   Clear
5:36 AM -11.2 °F -27.8 °F -18.4 °F 70% 29.53 in 10.0 mi North 8.1 mph - N/A   Clear
5:56 AM -9.4 °F -25.6 °F -16.6 °F 71% 29.54 in 10.0 mi NNE 8.1 mph - N/A   Clear
6:16 AM -7.6 °F -25.7 °F -14.8 °F 71% 29.54 in 10.0 mi NNE 10.4 mph - N/A   Clear
6:36 AM -7.6 °F -24.6 °F -14.8 °F 71% 29.54 in 10.0 mi NNE 9.2 mph - N/A   Clear
6:56 AM -9.4 °F -25.6 °F -20.2 °F 59% 29.55 in 10.0 mi North 8.1 mph - N/A   Mostly Cloudy
7:16 AM -11.2 °F -29.0 °F -22.0 °F 59% 29.55 in 10.0 mi NNE 9.2 mph - N/A   Scattered Clouds
7:36 AM -9.4 °F -24.3 °F -16.6 °F 71% 29.56 in 10.0 mi NNE 6.9 mph - N/A   Mostly Cloudy
7:56 AM -7.6 °F -24.6 °F -18.4 °F 59% 29.56 in 10.0 mi NNE 9.2 mph - N/A   Mostly Cloudy
8:16 AM -7.6 °F -20.6 °F -9.4 °F 92% 29.57 in 10.0 mi North 5.8 mph - N/A   Overcast
8:36 AM -5.8 °F -18.4 °F -16.6 °F 60% 29.58 in 10.0 mi North 5.8 mph - N/A   Mostly Cloudy
8:56 AM -4.0 °F -19.0 °F -9.4 °F 78% 29.58 in 10.0 mi North 8.1 mph - N/A   Clear
9:16 AM -2.2 °F -15.6 °F -9.4 °F 71% 29.58 in 10.0 mi NNW 6.9 mph - N/A   Clear
9:36 AM -0.4 °F -14.7 °F -9.4 °F 66% 29.59 in 10.0 mi North 8.1 mph - N/A   Scattered Clouds
9:56 AM -5.8 °F -18.4 °F -18.4 °F 55% 29.60 in 10.0 mi North 5.8 mph - N/A   Mostly Cloudy
10:16 AM -2.2 °F -12.5 °F -7.6 °F 78% 29.60 in 10.0 mi North 4.6 mph - N/A   Mostly Cloudy
10:36 AM -5.8 °F -23.4 °F -16.6 °F 60% 29.61 in 10.0 mi NNE 10.4 mph - N/A   Overcast
10:56 AM -5.8 °F -24.4 °F -14.8 °F 65% 29.62 in 10.0 mi NNE 11.5 mph - N/A   Overcast
11:16 AM -5.8 °F -24.4 °F -14.8 °F 65% 29.62 in 10.0 mi NNE 11.5 mph - N/A   Overcast
11:36 AM -2.2 °F -18.0 °F -7.6 °F 78% 29.63 in 10.0 mi NNE 9.2 mph - N/A   Mostly Cloudy
11:56 AM -2.2 °F -16.8 °F -13.0 °F 60% 29.64 in 10.0 mi NNE 8.1 mph - N/A   Mostly Cloudy
12:16 PM -5.8 °F -22.4 °F -16.6 °F 60% 29.65 in 10.0 mi NNE 9.2 mph - N/A   Overcast
12:36 PM -5.8 °F -21.2 °F -13.0 °F 71% 29.65 in 10.0 mi NNE 8.1 mph - N/A   Overcast
12:56 PM -0.4 °F -13.4 °F -7.6 °F 72% 29.66 in 10.0 mi NNE 6.9 mph - N/A   Overcast
1:16 PM 1.4 °F -12.5 °F -5.8 °F 72% 29.66 in 10.0 mi North 8.1 mph - N/A   Overcast
1:36 PM 1.4 °F -12.5 °F -9.4 °F 61% 29.67 in 10.0 mi NNE 8.1 mph - N/A   Scattered Clouds
1:56 PM -2.2 °F -16.8 °F -11.2 °F 66% 29.68 in 10.0 mi NNE 8.1 mph - N/A   Clear
2:16 PM -0.4 °F -15.7 °F -9.4 °F 66% 29.68 in 10.0 mi NNE 9.2 mph - N/A   Clear
2:36 PM -0.4 °F -15.7 °F -9.4 °F 66% 29.69 in 10.0 mi North 9.2 mph - N/A   Scattered Clouds
2:56 PM -2.2 °F -18.9 °F -11.2 °F 66% 29.70 in 10.0 mi North 10.4 mph - N/A   Overcast
3:16 PM -0.4 °F -17.6 °F -9.4 °F 66% 29.71 in 10.0 mi North 11.5 mph - N/A   Mostly Cloudy
3:36 PM -0.4 °F -16.7 °F -11.2 °F 60% 29.71 in 10.0 mi NNE 10.4 mph - N/A   Partly Cloudy
3:56 PM -0.4 °F -16.7 °F -9.4 °F 66% 29.72 in 10.0 mi NNE 10.4 mph - N/A   Partly Cloudy
4:16 PM -0.4 °F -16.7 °F -11.2 °F 60% 29.73 in 10.0 mi NNE 10.4 mph - N/A   Mostly Cloudy
4:36 PM 1.4 °F -18.2 °F - N/A% 29.73 in 9.0 mi ENE 16.1 mph 24.2 mph N/A   Overcast
4:56 PM 1.4 °F -18.8 °F -27.4 °F 25% 29.74 in 10.0 mi ENE 17.3 mph 23.0 mph N/A   Overcast
5:16 PM 1.4 °F -18.8 °F -27.4 °F 25% 29.75 in 10.0 mi NE 17.3 mph 23.0 mph N/A   Overcast
5:36 PM 1.4 °F -18.2 °F -25.6 °F 27% 29.76 in 10.0 mi NE 16.1 mph 19.6 mph N/A   Overcast
5:56 PM -0.4 °F -19.9 °F -23.8 °F 32% 29.76 in 10.0 mi NNE 15.0 mph 20.7 mph N/A   Overcast
6:16 PM -0.4 °F -19.9 °F -22.0 °F 36% 29.77 in 10.0 mi NE 15.0 mph - N/A   Overcast
6:36 PM -2.2 °F -24.1 °F -22.0 °F 39% 29.78 in 9.0 mi NE 18.4 mph 24.2 mph N/A   Overcast
6:56 PM -2.2 °F -23.5 °F -23.8 °F 35% 29.78 in 5.0 mi NE 17.3 mph - N/A   Overcast
7:16 PM -2.2 °F -22.9 °F -22.0 °F 39% 29.79 in 10.0 mi ENE 16.1 mph - N/A   Overcast
7:36 PM -4.0 °F -24.5 °F -20.2 °F 46% 29.80 in 7.0 mi NE 15.0 mph - N/A   Overcast
7:56 PM -5.8 °F -26.0 °F -20.2 °F 50% 29.81 in 6.0 mi NE 13.8 mph - N/A   Mostly Cloudy
8:16 PM -5.8 °F -27.5 °F -20.2 °F 50% 29.81 in 6.0 mi ENE 16.1 mph - N/A   Mostly Cloudy
8:36 PM -5.8 °F -26.0 °F -18.4 °F 55% 29.82 in 6.0 mi NE 13.8 mph - N/A   Overcast
8:56 PM -5.8 °F -26.8 °F -18.4 °F 55% 29.83 in 4.0 mi NE 15.0 mph - N/A   Overcast
9:16 PM -5.8 °F -26.0 °F -18.4 °F 55% 29.84 in 3.0 mi ENE 13.8 mph - N/A   Overcast
9:36 PM -5.8 °F -26.0 °F -18.4 °F 55% 29.84 in 5.0 mi NE 13.8 mph - N/A   Overcast
9:56 PM -5.8 °F -26.8 °F -16.6 °F 60% 29.85 in 5.0 mi NE 15.0 mph - N/A   Overcast
10:16 PM -5.8 °F -26.8 °F -16.6 °F 60% 29.85 in 5.0 mi NE 15.0 mph - N/A   Overcast
10:36 PM -5.8 °F -26.8 °F -16.6 °F 60% 29.86 in 5.0 mi NE 15.0 mph 19.6 mph N/A   Overcast
10:56 PM -5.8 °F -26.0 °F -16.6 °F 60% 29.87 in 3.0 mi NE 13.8 mph - N/A   Overcast
11:16 PM -7.6 °F -25.7 °F -16.6 °F 65% 29.87 in 5.0 mi NE 10.4 mph - N/A   Overcast
11:36 PM -7.6 °F -25.7 °F -18.4 °F 59% 29.88 in 4.0 mi NE 10.4 mph - N/A   Overcast
11:56 PM -7.6 °F -24.6 °F -18.4 °F 59% 29.88 in 5.0 mi NE 9.2 mph - N/A   Overcast